FW0727 Weather Reports


time (UTC)temp
F
wind
direction
speed
knots
gust
knots
rain 1hr
in
rain 24hr
in
rain mn
in
humidity
%
barometer
mb
20260504202701 56 0.0 0.0 0.00 0.00 0.00 48 1014.4
20260504202116 56 0.0 0.0 0.00 0.00 0.00 47 1014.4
20260504201531 56 0.0 0.0 0.00 0.00 0.00 47 1014.4
20260504200947 56 0.0 0.0 0.00 0.00 0.00 47 1014.4
20260504200403 56 0.0 0.0 0.00 0.00 0.00 47 1014.4
20260504195809 57 0.0 0.0 0.00 0.00 0.00 47 1014.4
20260504195224 57 0.0 0.0 0.00 0.00 0.00 46 1014.4
20260504194640 58 0.0 0.0 0.00 0.00 0.00 46 1014.4
20260504194054 57 0.0 0.0 0.00 0.00 0.00 45 1014.5
20260504193510 58 0.0 0.0 0.00 0.00 0.00 45 1014.5
20260504192925 58 0.0 0.0 0.00 0.00 0.00 45 1014.5
20260504192340 58 0.0 0.0 0.00 0.00 0.00 45 1014.5
20260504191756 59 0.0 0.0 0.00 0.00 0.00 44 1014.5
20260504191211 58 0.0 0.0 0.00 0.00 0.00 44 1014.5
20260504190626 59 0.0 0.0 0.00 0.00 0.00 44 1014.4
20260504190041 59 0.0 0.0 0.00 0.00 0.00 43 1014.4
20260504185456 60 0.0 0.0 0.00 0.00 0.00 43 1014.3
20260504184912 60 0.0 0.0 0.00 0.00 0.00 42 1014.3
20260504184326 60 0.0 0.0 0.00 0.00 0.00 42 1014.3
20260504183741 61 0.0 0.0 0.00 0.00 0.00 42 1014.3
20260504183157 61 0.0 0.0 0.00 0.00 0.00 42 1014.2
20260504182612 61 0.0 0.0 0.00 0.00 0.00 41 1014.1
20260504182026 62 0.0 0.0 0.00 0.00 0.00 41 1014.1
20260504181441 62 0.0 0.0 0.00 0.00 0.00 41 1014.0
20260504180328 62 0.0 0.0 0.00 0.00 0.00 40 1013.9
20260504175743 63 0.0 0.0 0.00 0.00 0.00 40 1013.8
20260504175159 63 0.0 0.0 0.00 0.00 0.00 39 1013.7
20260504174614 64 0.0 0.0 0.00 0.00 0.00 39 1013.6
20260504174029 64 0.0 0.0 0.00 0.00 0.00 39 1013.5
20260504173444 64 0.0 0.0 0.00 0.00 0.00 39 1013.4
20260504172854 64 0.0 0.0 0.00 0.00 0.00 38 1013.3
20260504172310 64 0.0 0.0 0.00 0.00 0.00 38 1013.3
20260504171725 65 0.0 0.0 0.00 0.00 0.00 38 1013.3
20260504171140 65 0.0 0.0 0.00 0.00 0.00 38 1013.3
20260504170556 65 0.0 0.0 0.00 0.00 0.00 37 1013.3
20260504160243 68 0.0 0.0 0.00 0.00 0.00 34 1012.9
20260504151045 70 0.0 0.0 0.00 0.00 0.00 32 1012.8
20260504150500 69 0.0 0.0 0.00 0.00 0.00 33 1012.8
20260504141316 71 0.0 0.0 0.00 0.00 0.00 31 1012.8
20260504140732 71 0.0 0.0 0.00 0.00 0.00 31 1012.9
20260504140147 71 0.0 0.0 0.00 0.00 0.00 31 1012.9
20260504130406 73 0.0 0.0 0.00 0.00 0.00 29 1013.0
20260504110241 71 0.0 0.0 0.00 0.00 0.00 28 1014.1
20260504100501 71 0.0 0.0 0.00 0.00 0.00 27 1014.4
20260504081521 70 0.0 0.0 0.00 0.00 0.00 27 1014.6
20260504080936 70 0.0 0.0 0.00 0.00 0.00 29 1014.7
20260504080342 70 0.0 0.0 0.00 0.00 0.00 30 1014.7
20260504060227 60 0.0 0.0 0.00 0.00 0.00 38 1015.3
20260504050456 51 0.0 0.0 0.00 0.00 0.00 45 1015.7
20260504045911 50 0.0 0.0 0.00 0.00 0.00 45 1015.7
20260504045327 49 0.0 0.0 0.00 0.00 0.00 46 1015.8
20260504044742 48 0.0 0.0 0.00 0.00 0.00 47 1015.8
20260504044157 47 0.0 0.0 0.00 0.00 0.00 47 1015.9
20260504043612 47 0.0 0.0 0.00 0.00 0.00 48 1015.9
20260504043027 46 0.0 0.0 0.00 0.00 0.00 49 1015.8
20260504042442 45 0.0 0.0 0.00 0.00 0.00 49 1015.9
20260504041857 44 0.0 0.0 0.00 0.00 0.00 50 1015.9
20260504041311 44 0.0 0.0 0.00 0.00 0.00 50 1016.0
20260504040726 43 0.0 0.0 0.00 0.00 0.00 50 1016.0
20260504040141 42 0.0 0.0 0.00 0.00 0.00 51 1016.1
20260504035556 42 0.0 0.0 0.00 0.00 0.00 51 1016.0
20260504035012 42 0.0 0.0 0.00 0.00 0.00 51 1016.1
20260504034427 41 0.0 0.0 0.00 0.00 0.00 51 1016.1
20260504033843 41 0.0 0.0 0.00 0.00 0.00 52 1016.1
20260504033258 41 0.0 0.0 0.00 0.00 0.00 51 1016.1
20260504032714 41 0.0 0.0 0.00 0.00 0.00 51 1016.2
20260504032129 41 0.0 0.0 0.00 0.00 0.00 51 1016.2
20260504031544 41 0.0 0.0 0.00 0.00 0.00 51 1016.2
20260504031000 41 0.0 0.0 0.00 0.00 0.00 52 1016.3
20260504030416 40 0.0 0.0 0.00 0.00 0.00 51 1016.3
20260504025830 40 0.0 0.0 0.00 0.00 0.00 51 1016.3
20260504025246 40 0.0 0.0 0.00 0.00 0.00 51 1016.4
20260504024703 40 0.0 0.0 0.00 0.00 0.00 51 1016.4
20260504024109 40 0.0 0.0 0.00 0.00 0.00 51 1016.5
20260504023523 40 0.0 0.0 0.00 0.00 0.00 51 1016.5
20260504022939 40 0.0 0.0 0.00 0.00 0.00 51 1016.5
20260504022354 40 0.0 0.0 0.00 0.00 0.00 51 1016.5
20260504021809 40 0.0 0.0 0.00 0.00 0.00 51 1016.6
20260504021224 40 0.0 0.0 0.00 0.00 0.00 51 1016.6
20260504020640 40 0.0 0.0 0.00 0.00 0.00 50 1016.7
20260504020056 40 0.0 0.0 0.00 0.00 0.00 51 1016.7
20260504015511 40 0.0 0.0 0.00 0.00 0.00 50 1016.7
20260504014927 40 0.0 0.0 0.00 0.00 0.00 51 1016.8
20260504014342 40 0.0 0.0 0.00 0.00 0.00 50 1016.8
20260504013758 40 0.0 0.0 0.00 0.00 0.00 50 1017.0
20260504013214 40 0.0 0.0 0.00 0.00 0.00 51 1016.9
20260504012629 40 0.0 0.0 0.00 0.00 0.00 50 1016.9
20260504012044 40 0.0 0.0 0.00 0.00 0.00 50 1017.0
20260504011501 40 0.0 0.0 0.00 0.00 0.00 50 1017.0
20260504010908 41 0.0 0.0 0.00 0.00 0.00 50 1017.1
20260504010323 40 0.0 0.0 0.00 0.00 0.00 50 1017.1
20260504005739 41 0.0 0.0 0.00 0.00 0.00 49 1017.1
20260504005154 40 0.0 0.0 0.00 0.00 0.00 49 1017.1
20260504004610 41 0.0 0.0 0.00 0.00 0.00 49 1017.2
20260504004026 41 0.0 0.0 0.00 0.00 0.00 49 1017.1
20260504003441 41 0.0 0.0 0.00 0.00 0.00 49 1017.1
20260504002856 41 0.0 0.0 0.00 0.00 0.00 49 1017.1
20260504002311 40 0.0 0.0 0.00 0.00 0.00 49 1017.1
20260504001727 41 0.0 0.0 0.00 0.00 0.00 49 1017.0
20260504001143 41 0.0 0.0 0.00 0.00 0.00 49 1017.0
20260504000558 41 0.0 0.0 0.00 0.00 0.00 49 1017.0
20260504000013 41 0.0 0.0 0.00 0.00 0.00 49 1017.1
20260503235425 41 0.0 0.0 0.00 0.00 0.00 48 1017.2
20260503234833 41 0.0 0.0 0.00 0.00 0.00 48 1017.2
20260503234249 41 0.0 0.0 0.00 0.00 0.00 48 1017.2
20260503233705 41 0.0 0.0 0.00 0.00 0.00 48 1017.2
20260503232551 42 0.0 0.0 0.00 0.00 0.00 48 1017.3
20260503232007 42 0.0 0.0 0.00 0.00 0.00 48 1017.3
20260503231423 42 0.0 0.0 0.00 0.00 0.00 47 1017.4
20260503230838 42 0.0 0.0 0.00 0.00 0.00 47 1017.4
20260503230254 42 0.0 0.0 0.00 0.00 0.00 47 1017.4
20260503225710 42 0.0 0.0 0.00 0.00 0.00 47 1017.5
20260503225117 42 0.0 0.0 0.00 0.00 0.00 47 1017.5
20260503224533 42 0.0 0.0 0.00 0.00 0.00 47 1017.6
20260503223411 43 0.0 0.0 0.00 0.00 0.00 46 1017.8
20260503222827 43 0.0 0.0 0.00 0.00 0.00 46 1017.8
20260503222243 43 0.0 0.0 0.00 0.00 0.00 46 1017.9
20260503221650 43 0.0 0.0 0.00 0.00 0.00 46 1017.9
20260503221057 43 0.0 0.0 0.00 0.00 0.00 46 1018.0
20260503215945 44 0.0 0.0 0.00 0.00 0.00 46 1018.2
20260503215401 44 0.0 0.0 0.00 0.00 0.00 45 1018.3
20260503214808 44 0.0 0.0 0.00 0.00 0.00 45 1018.3
20260503214222 44 0.0 0.0 0.00 0.00 0.00 45 1018.3
20260503213638 44 0.0 0.0 0.00 0.00 0.00 45 1018.4
20260503213045 44 0.0 0.0 0.00 0.00 0.00 45 1018.4
20260503211924 45 0.0 0.0 0.00 0.00 0.00 44 1018.5
20260503210802 45 0.0 0.0 0.00 0.00 0.00 43 1018.5
20260503210218 45 0.0 0.0 0.00 0.00 0.00 43 1018.5
20260503205626 46 0.0 0.0 0.00 0.00 0.00 43 1018.6
20260503205034 45 0.0 0.0 0.00 0.00 0.00 43 1018.6
20260503204449 45 0.0 0.0 0.00 0.00 0.00 44 1018.6
20260503203904 46 0.0 0.0 0.00 0.00 0.00 43 1018.6
20260503203319 46 0.0 0.0 0.00 0.00 0.00 43 1018.7
20260503202735 46 0.0 0.0 0.00 0.00 0.00 42 1018.7